This is the latest recevied weather packets stored in our database for station/object 4S6DRJ-13. If no packets are shown the sender has not sent any weather packets the latest 10 day(s).
| Time | Temp. | Humidity | Pressure | Rain* | Wind** | Luminosity | Snow |
|---|---|---|---|---|---|---|---|
| 1787604774 | 25.56° C | 90% | 1009.5 hPa | 0 mm | 1.34 m/s, 146° | 0 W/m² | - |
| 1787604712 | 25.56° C | 90% | 1009.7 hPa | 0 mm | 0.89 m/s, 177° | 0 W/m² | - |
| 1787604651 | 25.56° C | 90% | 1009.4 hPa | 0 mm | 0.89 m/s, 161° | 0 W/m² | - |
| 1787604590 | 25.56° C | 90% | 1009.6 hPa | 0 mm | 0.89 m/s, 140° | 0 W/m² | - |
| 1787604529 | 25.56° C | 90% | 1009.8 hPa | 0 mm | 0.89 m/s, 168° | 0 W/m² | - |
| 1787604407 | 25.56° C | 90% | 1009.8 hPa | 0 mm | 0.45 m/s, 118° | 0 W/m² | - |
| 1787604346 | 25.56° C | 90% | 1009.7 hPa | 0 mm | 0.45 m/s, 197° | 0 W/m² | - |
| 1787604286 | 25.56° C | 90% | 1009.6 hPa | 0 mm | 0.89 m/s, 188° | 0 W/m² | - |
| 1787604224 | 25.56° C | 90% | 1009.6 hPa | 0 mm | 0.45 m/s, 145° | 0 W/m² | - |
| 1787604164 | 25.56° C | 90% | 1009.7 hPa | 0 mm | 0.45 m/s, 184° | 0 W/m² | - |
| 1787604102 | 25.56° C | 90% | 1009.7 hPa | 0 mm | 1.79 m/s, 138° | 0 W/m² | - |
| 1787604041 | 25.56° C | 90% | 1009.8 hPa | 0 mm | 1.34 m/s, 164° | 0 W/m² | - |
| 1787603980 | 25.56° C | 90% | 1009.6 hPa | 0 mm | 1.34 m/s, 151° | 0 W/m² | - |
| 1787603919 | 25.56° C | 90% | 1009.7 hPa | 0 mm | 2.24 m/s, 128° | 0 W/m² | - |
| 1787603858 | 25.56° C | 90% | 1009.6 hPa | 0 mm | 1.34 m/s, 153° | 0 W/m² | - |
| 1787603797 | 25.56° C | 91% | 1009.7 hPa | 0 mm | 1.34 m/s, 146° | 0 W/m² | - |
| 1787603737 | 25.56° C | 91% | 1009.9 hPa | 0 mm | 1.79 m/s, 128° | 0 W/m² | - |
| 1787603675 | 25.56° C | 91% | 1010 hPa | 0 mm | 0.89 m/s, 153° | 0 W/m² | - |
| 1787603614 | 25.56° C | 91% | 1009.8 hPa | 0 mm | 1.34 m/s, 165° | 0 W/m² | - |
| 1787603553 | 25.56° C | 91% | 1010 hPa | 0 mm | 1.79 m/s, 107° | 0 W/m² | - |
| 1787603492 | 25.56° C | 91% | 1009.9 hPa | 0 mm | 1.79 m/s, 150° | 0 W/m² | - |
| 1787603431 | 25.56° C | 91% | 1009.9 hPa | 0 mm | 1.34 m/s, 154° | 0 W/m² | - |
| 1787603370 | 25.56° C | 91% | 1010.1 hPa | 0 mm | 1.34 m/s, 151° | 0 W/m² | - |
| 1787603309 | 25.56° C | 91% | 1009.9 hPa | 0 mm | 0.89 m/s, 135° | 0 W/m² | - |
| 1787603249 | 25.56° C | 91% | 1009.9 hPa | 0 mm | 0.89 m/s, 140° | 0 W/m² | - |
* Rain latest hour (hover to see other rain measurements)
** Current wind speed in m/s (hover to see current wind gust speed)